Wind_Speed
5 5 4 5 6 6 6 7 7 7 7 6 6 6 6 6 7 7 7 7 7 8 8 8 9 9 9 9 8 8 8 8 8 7 7 6 6 6 5 4 3 3 4
5 4 4 5 6 6 6 7 7 7 7 6 6 6 6 6 7 7 6 7 7 8 8 8 8 8 8 8 8 8 8 7 7 7 6 6 5 5 5 4 4 4 4
5 5 6 7 7 7 7 8 7 7 6 6 7 7 7 6 6 8 8 8 8 8 8 8 8 7 8 8 8 8 7 7 6 5 5 5 4 4 4 4 4 4 3
6 6 8 8 8 8 8 8 7 7 6 7 7 7 7 6 6 8 8 8 8 8 7 7 7 7 7 7 7 7 6 6 5 5 5 5 4 4 3 3 4 4 3
7 7 8 8 8 8 8 8 8 7 7 7 7 7 6 7 8 8 8 7 7 7 7 6 6 7 7 6 6 6 5 5 4 5 4 4 4 3 3 3 3 3 3
7 8 8 8 8 8 8 8 8 8 8 8 8 7 7 8 8 8 8 8 7 7 6 6 6 6 6 5 5 4 4 4 4 4 4 4 3 3 3 2 2 2 2
7 8 8 8 8 8 8 8 8 8 8 7 7 7 8 8 8 8 7 7 7 7 7 6 6 5 6 5 4 4 4 4 4 3 3 3 2 2 2 1 1 1 1
8 8 7 7 7 8 8 7 8 8 7 7 7 7 7 8 8 8 7 7 7 7 6 6 6 6 5 4 4 3 3 3 3 2 2 2 2 2 2 2 2 1 1
9 8 8 8 8 8 8 7 7 7 7 7 7 7 7 7 8 8 8 7 7 6 6 6 6 6 5 4 3 3 3 3 3 2 2 2 2 2 2 1 1 1 1
10 10 9 8 8 8 8 8 8 8 7 7 8 7 7 7 8 7 7 7 7 6 6 5 5 5 5 4 3 3 3 3 2 2 2 2 2 2 1 0 0 1 1
11 10 10 9 9 8 8 8 8 8 7 7 7 8 7 7 7 8 7 7 6 6 5 5 5 4 4 3 3 3 2 2 1 1 2 2 2 1 1 1 1 1 2
12 12 11 10 9 9 9 8 7 8 8 7 8 8 8 8 8 8 7 7 6 5 5 4 4 4 3 3 2 2 1 1 1 0 1 1 1 1 2 2 2 2 3
13 12 11 11 10 10 9 8 7 7 7 7 8 8 8 8 7 7 6 5 5 5 5 5 4 4 3 3 1 1 1 0 0 1 1 1 1 2 2 2 3 3 4
13 12 12 10 10 10 9 9 8 7 7 7 7 8 8 8 7 6 6 5 5 5 5 5 4 4 3 3 1 1 0 1 2 1 2 2 2 3 3 3 4 4 4
12 12 11 10 10 10 9 9 8 7 7 7 8 8 7 7 7 6 5 5 5 5 5 4 4 3 2 2 1 0 0 1 1 1 2 2 4 4 4 5 4 4 4
12 11 11 10 9 9 9 8 8 8 8 8 7 7 7 7 6 6 5 4 4 5 4 4 3 3 2 1 1 0 0 1 1 2 2 3 3 5 5 5 4 5 5
12 11 10 9 8 8 8 8 8 8 7 7 7 7 6 6 5 5 4 4 4 4 4 3 3 2 1 1 1 0 1 2 2 2 3 4 4 5 5 6 6 5 5
11 11 10 9 8 7 7 7 8 7 7 7 6 6 6 5 4 3 3 4 4 3 2 2 2 1 1 1 1 1 2 3 3 3 5 5 5 6 6 6 6 6 6
11 11 10 9 8 8 7 7 7 7 7 7 6 6 5 5 4 3 3 3 3 2 2 2 2 2 2 2 2 3 3 4 4 5 6 6 6 6 7 7 6 6 7
11 10 10 9 8 8 7 7 6 6 6 6 6 6 5 5 4 3 3 2 2 1 1 1 2 2 2 2 3 3 3 3 4 5 6 6 7 7 7 7 7 7 7
11 10 9 9 8 8 7 6 6 6 6 6 5 6 6 4 3 3 3 2 1 1 1 1 1 2 2 2 2 3 3 4 4 5 5 6 6 6 7 8 9 8 8
10 10 9 8 7 6 6 6 6 6 6 5 4 4 4 3 3 3 3 2 1 1 1 1 1 1 2 3 3 3 4 4 4 5 5 5 6 6 7 7 8 9 9
9 8 8 7 7 7 7 6 6 6 5 5 4 3 2 1 1 1 1 1 1 2 2 2 2 2 3 3 4 4 4 5 5 5 6 6 7 7 8 8 8 8 9
7 8 7 7 6 7 7 6 6 5 5 4 4 3 2 1 0 1 0 0 1 2 2 3 3 3 3 3 4 4 5 5 5 6 6 7 7 8 8 8 9 9 9
6 6 6 6 6 6 6 6 5 5 5 4 3 3 2 2 1 1 1 1 1 2 2 2 3 3 3 3 3 4 4 5 6 6 7 7 8 8 9 9 10 10 11
4 4 5 5 5 5 4 4 4 4 3 3 3 3 3 3 2 2 2 1 1 2 2 2 2 3 4 4 4 4 5 6 7 8 8 8 9 9 9 10 11 11 11
Wind_Direction
125 137 147 148 148 146 151 151 148 144 134 132 133 127 120 122 117 115 116 117 115 112 115 119 126 122 118 120 122 123 122 123 127 127 132 135 134 134 137 142 139 131 121
118 133 146 145 143 143 149 151 149 146 138 133 131 132 127 124 120 122 125 126 122 120 117 119 122 118 114 117 119 120 122 123 127 134 132 127 125 130 132 140 139 129 116
119 130 141 142 140 135 139 146 144 138 132 126 129 128 131 121 124 125 125 126 122 120 118 114 115 116 111 110 113 117 123 127 128 126 122 124 129 136 137 134 126 118 123
114 127 135 135 131 132 135 139 138 134 130 128 133 134 125 122 128 131 130 130 123 119 118 114 110 113 113 112 111 114 118 124 128 125 122 125 130 138 136 129 115 111 111
108 121 124 126 126 130 133 138 138 133 135 137 137 135 135 128 123 129 131 133 130 125 122 119 112 112 113 112 115 118 122 126 130 133 134 130 123 126 128 123 111 104 112
109 113 116 117 120 128 134 139 138 135 137 138 138 135 137 132 124 123 126 127 128 126 123 121 117 115 113 113 116 120 127 129 134 139 140 135 118 122 124 122 111 107 113
108 112 113 112 115 119 126 132 134 137 141 141 144 143 140 134 135 131 128 130 131 127 123 122 121 116 117 117 119 121 123 125 135 141 139 140 125 116 102 125 129 131 142
103 107 106 108 110 114 121 130 134 137 144 147 150 146 139 138 141 137 133 132 133 131 129 124 121 123 126 121 119 120 125 122 129 145 146 141 122 99 87 84 104 128 142
95 99 101 106 107 112 116 119 127 135 144 151 152 149 147 145 145 144 138 133 134 134 132 128 125 133 133 126 122 126 128 130 128 130 128 138 133 112 92 93 52 130 166
87 90 94 100 103 107 107 111 119 130 136 140 147 149 149 149 150 153 149 142 143 141 137 134 133 143 140 139 136 135 131 128 125 132 127 136 139 123 116 274 272 231 238
85 88 89 91 96 99 101 107 119 128 128 135 145 150 153 152 151 153 150 144 145 143 141 144 149 152 149 148 140 143 137 123 132 150 153 149 157 170 191 239 277 262 256
84 85 84 88 90 89 94 101 114 125 126 135 140 144 146 149 148 151 152 151 148 143 143 147 153 153 152 145 136 132 133 112 134 193 217 206 164 215 246 264 268 273 257
82 83 82 86 87 87 90 98 113 121 121 128 135 142 142 145 147 151 153 156 154 149 145 146 150 164 167 166 162 143 178 226 272 286 283 273 278 280 276 278 273 268 253
83 83 80 84 85 85 89 94 105 115 122 128 133 139 140 141 145 154 161 164 159 155 153 149 150 161 176 179 196 210 198 285 286 289 272 276 277 278 279 284 279 268 260
80 80 78 81 85 84 83 84 92 103 110 115 123 131 135 139 141 146 148 152 156 156 158 155 153 148 156 162 165 142 13 310 289 284 269 271 279 280 279 284 277 265 271
76 77 77 80 83 85 81 81 90 99 107 114 119 130 130 135 138 140 147 149 152 160 159 163 165 159 154 141 190 268 344 337 315 300 303 287 279 287 283 280 280 274 273
72 71 74 75 82 84 81 80 89 97 105 110 113 120 120 125 124 130 143 153 163 163 164 173 178 185 167 183 235 298 280 285 297 300 297 296 293 294 286 282 279 275 276
70 71 71 71 81 88 86 87 90 95 94 99 106 116 123 127 126 131 144 157 162 163 170 180 200 230 228 231 245 273 279 284 282 287 287 286 287 289 287 283 282 278 278
66 68 71 70 79 86 89 88 89 91 89 95 105 111 125 133 132 138 145 154 158 166 187 203 233 235 250 259 267 278 289 292 288 284 281 282 285 284 285 284 284 280 278
59 62 66 68 72 81 84 82 81 88 91 98 105 112 115 120 112 120 133 146 155 174 230 258 242 230 254 268 270 276 295 294 291 292 289 285 281 280 281 281 279 277 277
57 57 62 67 69 77 80 80 78 85 93 100 106 103 104 110 96 99 114 116 139 213 263 267 241 265 271 288 279 272 292 295 298 296 294 291 287 285 282 282 277 272 272
56 57 56 62 66 73 78 74 74 83 89 93 101 101 97 100 98 107 119 128 179 221 229 224 258 280 273 288 290 290 288 286 294 298 302 296 290 290 290 289 285 282 280
54 53 52 56 57 64 70 72 71 71 83 91 91 104 110 128 110 124 131 191 242 248 251 250 261 294 296 286 283 281 285 297 300 298 300 302 301 296 294 291 287 286 284
51 51 55 57 58 59 59 63 70 70 69 77 86 94 93 118 206 240 178 324 293 287 281 283 274 285 297 298 298 285 287 296 300 299 299 299 298 298 298 295 295 292 289
48 53 57 53 54 54 56 60 60 59 55 53 56 60 44 46 15 330 325 320 320 313 295 287 299 295 299 301 300 297 291 294 297 299 299 299 297 298 296 295 296 294 291
37 49 47 42 44 44 48 49 46 43 42 37 33 34 28 28 15 355 335 326 312 315 309 292 290 290 300 300 294 304 306 302 301 298 297 297 298 298 297 299 300 300 295
Height
5853 5853 5854 5854 5855 5857 5858 5859 5861 5862 5863 5864 5865 5865 5866 5867 5868 5869 5870 5871 5871 5872 5873 5873 5874 5875 5876 5877 5878 5879 5880 5880 5881 5881 5882 5883 5884 5884 5885 5885 5886 5886 5886
5853 5854 5854 5855 5856 5858 5859 5860 5861 5862 5863 5864 5865 5866 5867 5868 5869 5870 5871 5872 5873 5873 5874 5875 5876 5877 5878 5879 5879 5880 5881 5882 5882 5882 5883 5884 5885 5885 5886 5886 5886 5887 5887
5854 5854 5854 5856 5857 5858 5859 5860 5862 5863 5864 5865 5866 5867 5868 5869 5869 5870 5872 5873 5874 5875 5876 5876 5877 5878 5879 5880 5881 5882 5882 5883 5884 5884 5885 5885 5886 5886 5886 5886 5887 5887 5888
5855 5855 5855 5856 5858 5859 5860 5861 5862 5863 5864 5865 5867 5868 5869 5870 5870 5872 5873 5874 5876 5877 5877 5878 5879 5880 5880 5881 5882 5883 5884 5884 5885 5885 5886 5886 5887 5887 5887 5887 5888 5888 5888
5856 5856 5856 5857 5858 5860 5861 5862 5863 5864 5865 5866 5867 5869 5870 5871 5871 5872 5874 5876 5877 5878 5879 5880 5881 5881 5882 5883 5883 5884 5885 5885 5886 5886 5887 5887 5887 5888 5888 5888 5888 5888 5888
5857 5857 5857 5858 5859 5860 5861 5862 5863 5864 5865 5867 5868 5869 5870 5872 5873 5874 5876 5877 5878 5879 5880 5881 5882 5883 5883 5884 5884 5885 5886 5886 5887 5887 5887 5888 5888 5888 5888 5888 5888 5889 5889
5858 5858 5859 5859 5860 5861 5862 5863 5863 5865 5866 5867 5869 5870 5871 5872 5874 5875 5876 5878 5879 5880 5881 5882 5883 5883 5884 5885 5886 5886 5886 5887 5887 5888 5888 5888 5888 5889 5889 5889 5889 5889 5889
5860 5860 5860 5861 5861 5862 5862 5863 5864 5865 5866 5868 5869 5871 5872 5873 5875 5876 5877 5879 5880 5881 5882 5883 5884 5885 5885 5886 5886 5887 5887 5887 5888 5888 5888 5889 5889 5889 5889 5888 5889 5889 5889
5861 5861 5862 5862 5863 5863 5863 5864 5865 5866 5867 5868 5870 5871 5873 5874 5875 5877 5878 5879 5881 5882 5883 5884 5885 5885 5886 5887 5887 5887 5888 5888 5888 5889 5889 5889 5889 5889 5889 5889 5889 5890 5890
5863 5863 5864 5864 5864 5864 5864 5865 5865 5867 5868 5869 5870 5872 5873 5874 5876 5877 5878 5880 5881 5882 5883 5884 5885 5886 5887 5887 5888 5888 5889 5889 5889 5889 5889 5889 5889 5889 5890 5890 5890 5890 5890
5866 5866 5866 5865 5866 5866 5865 5865 5866 5867 5869 5870 5871 5872 5873 5875 5876 5878 5879 5880 5882 5883 5884 5884 5885 5886 5887 5887 5888 5888 5889 5889 5889 5889 5889 5889 5889 5890 5890 5890 5890 5890 5890
5868 5868 5868 5867 5867 5867 5867 5867 5867 5868 5869 5870 5871 5873 5874 5876 5877 5879 5880 5881 5882 5883 5884 5885 5886 5886 5887 5887 5888 5888 5889 5889 5889 5889 5889 5889 5890 5890 5890 5890 5890 5890 5889
5870 5870 5870 5869 5869 5869 5869 5868 5869 5869 5870 5871 5872 5873 5875 5876 5878 5879 5881 5882 5883 5884 5885 5885 5886 5887 5887 5888 5888 5888 5889 5889 5889 5889 5889 5889 5890 5889 5889 5889 5889 5889 5889
5872 5872 5872 5871 5871 5871 5871 5870 5871 5871 5871 5872 5872 5874 5876 5877 5878 5880 5881 5882 5883 5884 5885 5886 5886 5887 5887 5888 5888 5889 5889 5889 5889 5889 5889 5889 5889 5889 5889 5889 5889 5889 5889
5875 5874 5874 5874 5873 5873 5873 5873 5872 5872 5872 5872 5873 5875 5876 5878 5879 5880 5881 5883 5884 5885 5886 5886 5887 5887 5888 5888 5889 5889 5889 5889 5889 5889 5889 5889 5889 5889 5889 5889 5888 5888 5888
5877 5876 5876 5876 5875 5875 5875 5874 5874 5874 5874 5874 5875 5876 5877 5879 5880 5881 5882 5883 5884 5885 5886 5886 5887 5888 5888 5888 5889 5889 5889 5888 5888 5889 5889 5889 5889 5889 5888 5888 5888 5888 5887
5879 5878 5878 5878 5877 5877 5877 5876 5876 5876 5876 5876 5876 5878 5879 5880 5881 5882 5883 5884 5884 5885 5886 5887 5887 5887 5888 5888 5889 5889 5889 5888 5888 5888 5888 5888 5888 5888 5888 5887 5887 5886 5886
5881 5880 5880 5879 5879 5879 5878 5878 5878 5878 5878 5878 5878 5879 5880 5881 5882 5883 5883 5884 5885 5885 5886 5886 5887 5887 5888 5888 5888 5888 5888 5888 5888 5888 5888 5887 5887 5887 5887 5886 5886 5885 5885
5883 5882 5881 5881 5880 5880 5880 5880 5880 5879 5879 5879 5880 5880 5881 5881 5882 5883 5884 5884 5885 5886 5886 5886 5887 5887 5887 5888 5888 5888 5888 5887 5887 5887 5887 5886 5886 5886 5885 5885 5884 5884 5884
5885 5884 5883 5882 5882 5882 5881 5881 5881 5881 5881 5881 5881 5881 5882 5882 5882 5883 5884 5885 5885 5886 5886 5886 5886 5887 5887 5887 5887 5887 5887 5887 5886 5886 5886 5885 5885 5884 5884 5883 5883 5882 5882
5887 5886 5885 5884 5883 5883 5883 5882 5882 5881 5882 5882 5882 5882 5882 5883 5883 5883 5884 5885 5885 5886 5886 5886 5886 5886 5886 5887 5887 5886 5886 5886 5885 5885 5885 5884 5883 5883 5882 5881 5881 5880 5880
5889 5888 5887 5886 5885 5885 5884 5884 5883 5883 5883 5883 5883 5883 5883 5883 5884 5884 5884 5885 5885 5885 5886 5886 5886 5886 5886 5886 5886 5886 5885 5886 5884 5884 5883 5883 5882 5881 5881 5880 5879 5878 5878
5890 5889 5888 5887 5887 5886 5885 5885 5885 5884 5884 5884 5884 5884 5884 5884 5884 5884 5885 5885 5885 5885 5885 5885 5885 5885 5885 5885 5885 5885 5885 5884 5884 5883 5882 5882 5881 5880 5879 5878 5877 5876 5875
5891 5890 5889 5889 5888 5887 5887 5886 5886 5886 5885 5885 5885 5885 5885 5885 5885 5884 5884 5885 5885 5884 5884 5884 5884 5884 5884 5884 5884 5884 5884 5883 5883 5882 5881 5880 5879 5878 5877 5876 5875 5874 5873
5892 5891 5890 5890 5889 5889 5888 5887 5887 5887 5886 5886 5886 5885 5885 5885 5885 5884 5884 5885 5884 5884 5884 5884 5884 5883 5883 5883 5883 5882 5882 5881 5881 5880 5880 5879 5877 5876 5875 5874 5873 5872 5871
5893 5892 5891 5890 5890 5889 5889 5888 5888 5888 5887 5887 5886 5886 5885 5885 5885 5884 5884 5884 5884 5884 5883 5883 5883 5883 5883 5882 5882 5881 5881 5880 5879 5879 5878 5877 5876 5875 5873 5872 5871 5870 5868